Slidell, LA

1:25 AM CDT on October 18, 2017 (GMT -0500)
Slidell

Weather History for KASD - December, 2012

Change the Weather History Date:

Monday, December 31, 2012

  Actual Average (KNEW) Record (KNEW)
Temperature  
Mean Temperature 49 °F -  
Max Temperature 64 °F 60 °F 81 °F (1973)
Min Temperature 34 °F 45 °F 23 °F (1983)
Degree Days  
Heating Degree Days 16    
Moisture  
Dew Point 44 °F    
Average Humidity 75    
Maximum Humidity 96    
Minimum Humidity 60    
Precipitation  
Precipitation 0.00 in - - ()
Sea Level Pressure  
Sea Level Pressure 30.22 in    
Wind  
Wind Speed 4 mph (East)    
Max Wind Speed 10 mph    
Max Gust Speed -    
Visibility 10 miles    
Events      
Averages and records for this station are not official NWS values.
T = Trace of Precipitation, MM = Missing Value Source: NWS Daily Summary

Daily Weather History Graph

Daily Weather History Graph

Search for Another Location

Airport or City:

Trip Planner

Search our weather history database for the weather conditions in past years. The results will help you decide how hot, cold, wet, or windy it might be!

Date:

Astronomy

Dec. 31, 2012 Rise Set
Actual Time 6:55 AM CST 5:09 PM CST
Civil Twilight 6:29 AM CST 5:35 PM CST
Nautical Twilight 5:59 AM CST 6:05 PM CST
Astronomical Twilight 5:30 AM CST 6:35 PM CST
Moon 8:24 PM CST (12/31) 8:50 AM CST (12/31)
Length of Visible Light 11h 06m
Length of Day
10h 13m
Waning Gibbous, 90% of the Moon is Illuminated
Dec 31
Waning Gibbous
Jan 4
Last Quarter
Jan 11
New
Jan 18
First Quarter
Jan 26
Full

Hourly Weather History & Observations

Time (CST) Temp. Windchill Dew Point Humidity Pressure Visibility Wind Dir Wind Speed Gust Speed Precip Events Conditions
12:53 AM 34.0 °F - 33.1 °F 96% 30.33 in 10.0 mi Calm Calm - N/A   Clear
1:53 AM 34.0 °F 31.0 °F 33.1 °F 96% 30.33 in 10.0 mi NNE 3.5 mph - N/A   Clear
2:53 AM 36.0 °F - 34.0 °F 93% 30.32 in 10.0 mi Calm Calm - N/A   Clear
3:53 AM 39.9 °F 37.8 °F 32.0 °F 73% 30.32 in 10.0 mi ENE 3.5 mph - N/A   Overcast
4:53 AM 43.0 °F 41.3 °F 30.9 °F 62% 30.30 in 10.0 mi NE 3.5 mph - N/A   Overcast
5:53 AM 44.1 °F 41.5 °F 30.9 °F 60% 30.30 in 10.0 mi ENE 4.6 mph - N/A   Overcast
6:53 AM 45.0 °F 42.6 °F 32.0 °F 60% 30.30 in 10.0 mi ENE 4.6 mph - N/A   Overcast
7:53 AM 45.0 °F 43.5 °F 32.0 °F 60% 30.30 in 10.0 mi NE 3.5 mph - N/A   Overcast
8:53 AM 48.0 °F - 35.1 °F 61% 30.31 in 10.0 mi ENE 3.5 mph - N/A   Overcast
9:53 AM 50.0 °F - 37.0 °F 61% 30.31 in 10.0 mi East 5.8 mph - N/A   Overcast
10:53 AM 52.0 °F - 39.9 °F 63% 30.28 in 10.0 mi East 6.9 mph - N/A   Overcast
11:53 AM 55.0 °F - 43.0 °F 64% 30.23 in 10.0 mi East 4.6 mph - N/A   Overcast
12:53 PM 57.9 °F - 46.0 °F 65% 30.20 in 10.0 mi East 6.9 mph - N/A   Overcast
1:53 PM 61.0 °F - 48.9 °F 64% 30.15 in 10.0 mi ESE 9.2 mph - N/A   Mostly Cloudy
2:53 PM 64.0 °F - 52.0 °F 65% 30.14 in 10.0 mi SE 6.9 mph - N/A   Clear
3:53 PM 62.1 °F - 53.1 °F 72% 30.14 in 10.0 mi ESE 8.1 mph - N/A   Overcast
4:53 PM 61.0 °F - 53.1 °F 75% 30.15 in 10.0 mi ESE 3.5 mph - N/A   Overcast
5:53 PM 59.0 °F - 53.1 °F 81% 30.15 in 10.0 mi ESE 4.6 mph - N/A   Overcast
6:53 PM 57.9 °F - 53.1 °F 84% 30.15 in 10.0 mi ESE 4.6 mph - N/A   Overcast
7:53 PM 57.9 °F - 53.1 °F 84% 30.14 in 10.0 mi ESE 6.9 mph - N/A   Overcast
8:53 PM 59.0 °F - 55.0 °F 87% 30.10 in 10.0 mi SE 6.9 mph - N/A   Overcast
9:53 PM 61.0 °F - 57.9 °F 90% 30.09 in 10.0 mi SE 10.4 mph - N/A   Overcast
10:53 PM 61.0 °F - 59.0 °F 93% 30.09 in 9.0 mi SE 6.9 mph - N/A   Mostly Cloudy
11:53 PM 62.1 °F - 59.0 °F 90% 30.07 in 10.0 mi SE 9.2 mph - N/A   Mostly Cloudy